Location: Noyers
(47.2770°N, 1.4032°E)
Time: 00:14:10
(UTC+00:00)

Cosmos 2297 Rocket - Pass Details

Date: 15 May 2026
Orbit: 838 x 842 km, 71.0° (Epoch: 9 June)

Event Time Altitude Azimuth Distance (km) Brightness Sun altitude
Exits shadow 23:28:05 56° 155° (SSE) 995 2.2 -23.5°
Maximum altitude 23:28:57 64° 112° (ESE) 929 2.2 -23.5°
Drops below altitude 10° 23:34:32 10° 32° (NNE) 2,465 5.3 -23.6°
Sets 23:37:00 0° 30° (NNE) 3,404 6.2 -23.6°
